Location: Unspecified
(36.9193°S, 174.7252°E)
Time: 22:46:32
(UTC+13:00)

Envisat - Pass Details

Date: 22 September 2021
Orbit: 764 x 766 km, 98.2° (Epoch: 25 October)

Event Time Altitude Azimuth Distance (km) Brightness Sun altitude
Rises 03:12:54 0° 66° (ENE) 3,233 6.7 -34.9°
Reaches altitude 10° 03:16:40 10° 95° (E) 2,318 6.2 -34.3°
Maximum altitude 03:18:38 12° 118° (ESE) 2,169 6.1 -34.0°
Drops below altitude 10° 03:20:36 10° 141° (SE) 2,329 6.2 -33.6°
Sets 03:24:24 0° 169° (S) 3,266 6.7 -33.0°
